[[{"header":{"parameterUnit":"m.s-1","parameterCategory":1,"la1":30.2992,"la2":30.254,"lo1":-89.0895,"lo2":-89.0443,"dy":0.0025,"dx":0.0025,"nx":19,"ny":19,"refTime":"2026-04-26T09:00:00:Z","depth":0,"parameterNumber":2,"parameterNumberName":"U-component_of_WINDS"},"data":[0,0,0,-2.2477,-2.2479,-2.2578,-2.2578,-2.2702,-2.2704,0,0,0,0,0,0,0,0,0,0,0,-2.2445,-2.2446,-2.2477,-2.2479,-2.2578,-2.2578,-2.2702,-2.2704,0,0,0,0,0,0,0,0,0,0,0,-2.2445,-2.2446,-2.2447,-2.248,-2.2577,-2.2578,-2.2702,-2.2629,0,0,0,0,0,0,0,0,0,0,-2.2533,-2.2502,-2.2446,-2.2447,-2.248,-2.2577,-2.2578,-2.2625,-2.2633,-2.2657,0,-2.2676,0,-2.2692,-2.2712,-2.2712,0,0,0,-2.2481,-2.2495,-2.2523,-2.2447,-2.2481,-2.2577,-2.2534,-2.263,-2.2639,-2.2667,-2.2678,-2.2682,-2.2694,-2.2712,-2.2713,-2.2839,-2.2839,0,0,-2.2476,-2.2462,-2.2517,-2.2529,-2.2512,-2.2531,-2.2537,-2.2635,-2.2646,-2.2678,-2.2685,-2.2696,-2.2713,-2.2714,-2.2838,-2.2839,0,0,0,-2.2459,-2.2458,-2.2485,-2.2524,-2.2542,-2.2533,-2.2541,-2.2642,-2.2651,-2.2687,-2.2697,-2.2714,-2.2715,-2.2838,-2.2839,-2.2849,0,0,0,-2.2456,-2.2449,-2.2482,-2.2475,-2.254,-2.2593,-2.2545,-2.2644,-2.2656,-2.2696,-2.2714,-2.2717,-2.2837,-2.2838,-2.2847,-2.2856,0,0,0,-2.244,-2.2447,-2.246,-2.2474,-2.2516,-2.2591,-2.2607,-2.2647,-2.2662,-2.2712,-2.2717,-2.2837,-2.2838,-2.2846,-2.2854,-2.2885,0,0,0,-2.242,-2.2469,-2.246,-2.2519,-2.2515,-2.2597,-2.2606,-2.2668,-2.2712,-2.2715,-2.2837,-2.2839,-2.2846,-2.2853,-2.2883,-2.2907,-2.2916,0,0,-2.2474,-2.2475,-2.2511,-2.2506,-2.2585,-2.2583,-2.2665,-2.2719,-2.2737,-2.2804,-2.2807,-2.2848,-2.2854,-2.2884,-2.2972,-2.2979,0,0,0,-2.2523,-2.2549,-2.2573,-2.2613,-2.2655,-2.2691,-2.2734,-2.2754,-2.2812,-2.2768,-2.2868,-2.2872,-2.289,-2.2903,-2.2909,-2.2925,-2.2844,-2.2844,-2.2844,-2.2581,-2.26,-2.2661,-2.2692,-2.2731,-2.2774,-2.2808,-2.2843,-2.2852,-2.2875,-2.2895,-2.2946,-2.2959,-2.2964,-2.2981,-2.291,-2.291,-2.291,-2.291,-2.2662,-2.2701,-2.2711,-2.2773,-2.2793,-2.2846,-2.289,-2.2894,-2.2947,-2.2932,-2.295,-2.2931,-2.2971,-2.2987,-2.2911,-2.2911,-2.2911,-2.2911,-2.291,-2.2702,-2.2724,-2.2746,-2.2807,-2.2851,-2.2882,-2.2932,-2.2949,-2.2966,-2.2983,-2.3006,-2.3006,-2.3007,-2.2993,-2.2993,-2.2993,-2.2993,-2.2993,-2.2993,-2.2734,-2.2759,-2.2798,-2.2846,-2.2874,-2.2913,-2.2957,-2.2986,-2.3022,-2.3031,-2.3031,-2.3038,-2.2971,-2.2954,-2.2996,-2.2996,-2.2995,-2.2995,-2.2995,-2.2808,-2.2794,-2.2854,-2.2882,-2.294,-2.2983,-2.3004,-2.3061,-2.3087,-2.3111,-2.3114,-2.3062,-2.3065,-2.306,-2.3046,-2.311,-2.311,-2.311,-2.311,-2.2841,-2.2844,-2.2909,-2.2952,-2.2997,-2.3022,-2.3091,-2.3126,-2.316,-2.3177,-2.3171,-2.3154,-2.3148,-2.3154,-2.3147,-2.3134,-2.3219,-2.3219,-2.322,-2.2888,-2.2896,-2.295,-2.2981,-2.3027,-2.3067,-2.3132,-2.3182,-2.3218,-2.3224,-2.3192,-2.3187,-2.3159,-2.3149,-2.3154,-2.3143,-2.3119,0,0]},{"header":{"parameterUnit":"m.s-1","parameterCategory":1,"la1":30.2992,"la2":30.254,"lo1":-89.0895,"lo2":-89.0443,"dy":0.0025,"dx":0.0025,"nx":19,"ny":19,"refTime":"2026-04-26T09:00:00:Z","depth":0,"parameterNumber":3,"parameterNumberName":"V-component_of_WINDS"},"data":[0,0,0,4.5832,4.5833,4.5854,4.5854,4.5899,4.59,0,0,0,0,0,0,0,0,0,0,0,4.5837,4.5838,4.5832,4.5833,4.5854,4.5854,4.5899,4.59,0,0,0,0,0,0,0,0,0,0,0,4.5837,4.5837,4.5838,4.5833,4.5854,4.5854,4.5899,4.5876,0,0,0,0,0,0,0,0,0,0,4.5853,4.5868,4.5837,4.5838,4.5833,4.5854,4.5854,4.5875,4.5878,4.5897,0,4.5918,0,4.591,4.5904,4.5904,0,0,0,4.5824,4.5866,4.5862,4.5838,4.5833,4.5854,4.5842,4.5876,4.588,4.5901,4.5918,4.592,4.591,4.5904,4.5905,4.6046,4.6047,0,0,4.5823,4.5847,4.586,4.5864,4.5862,4.5841,4.5843,4.5878,4.5898,4.5918,4.592,4.5911,4.5905,4.5905,4.6045,4.6047,0,0,0,4.5826,4.5846,4.584,4.5863,4.5865,4.5842,4.5844,4.5897,4.5893,4.5921,4.5912,4.5905,4.5906,4.6044,4.6046,4.6121,0,0,0,4.5824,4.5847,4.584,4.5855,4.5865,4.5881,4.5862,4.589,4.5893,4.5911,4.5905,4.5906,4.6043,4.6045,4.6116,4.6153,0,0,0,4.5832,4.5848,4.5855,4.5856,4.5866,4.588,4.5878,4.589,4.5889,4.5904,4.5907,4.6042,4.6045,4.6112,4.6146,4.6197,0,0,0,4.5846,4.5921,4.5857,4.5937,4.5866,4.5927,4.5877,4.5921,4.5943,4.5905,4.6043,4.6046,4.6111,4.6141,4.6193,4.6245,4.6268,0,0,4.5954,4.5935,4.5981,4.5923,4.6001,4.5921,4.601,4.6008,4.5988,4.6028,4.6031,4.6118,4.6145,4.6196,4.6393,4.6412,0,0,0,4.6023,4.6056,4.6071,4.6094,4.6095,4.6098,4.608,4.6079,4.6112,4.6013,4.6149,4.6165,4.6194,4.6217,4.6234,4.6257,4.6057,4.6057,4.6057,4.6209,4.618,4.6253,4.6227,4.6249,4.623,4.6246,4.6241,4.6205,4.6238,4.6249,4.6372,4.6401,4.6413,4.6438,4.6274,4.6274,4.6275,4.6275,4.6365,4.6407,4.6357,4.641,4.6379,4.6423,4.6408,4.6381,4.6418,4.6361,4.6385,4.6325,4.6435,4.6455,4.628,4.6279,4.6278,4.6278,4.6278,4.6484,4.6499,4.6497,4.6527,4.6553,4.6523,4.6561,4.6531,4.6503,4.6527,4.6536,4.6535,4.653,4.6533,4.6534,4.6534,4.6534,4.6535,4.6535,4.6608,4.6604,4.6639,4.6647,4.6657,4.6668,4.665,4.6659,4.6662,4.6637,4.6637,4.6598,4.6451,4.6415,4.6541,4.654,4.6539,4.6539,4.6538,4.6777,4.6734,4.679,4.6801,4.6807,4.6835,4.6796,4.6819,4.6822,4.6842,4.6798,4.6694,4.6672,4.6659,4.6629,4.6803,4.6803,4.6803,4.6803,4.6878,4.6864,4.6914,4.6934,4.6949,4.6919,4.6983,4.697,4.695,4.695,4.6921,4.6878,4.6866,4.6852,4.6834,4.6806,4.7021,4.7022,4.7022,4.6981,4.6967,4.7027,4.7007,4.7009,4.7013,4.7072,4.7096,4.7064,4.703,4.695,4.6941,4.6872,4.6851,4.6815,4.6789,4.6736,0,0]}]]